Regional Weather Roundup
Issued by NWS Wakefield, VA

Home | Current Version | Previous Version | Graphics & Text | Print | Product List | Glossary On
Versions: 1 2 3 4 5 6 7 8 9 10 11 12 13 14 15 16 17 18 19 20 21 22 23 24 25 26 27 28 29 30 31 32 33 34 35 36 37 38 39 40 41 42 43 44 45 46 47 48 49 50
000
ASUS41 KAKQ 041314
RWRAKQ

REGIONAL WEATHER ROUNDUP
NATIONAL WEATHER SERVICE WAKEFIELD VA
900 AM EDT MON MAY 04 2015

Note: "fair" indicates few or no clouds below 12,000 feet with no
significant weather and/or obstructions to visibility. * = Denotes
station may not report precipitation (e.g., rain,snow,etc.),
thunder or fog.

VAZ042-051-052>054-056-041400-
NORTHERN VIRGINIA

CITY           SKY/WX    TMP DP  RH WIND       PRES   REMARKS
WASH NATIONAL  MOSUNNY   66  52  60 S8        30.25R
DULLES         SUNNY     66  48  52 S6        30.24R
FORT BELVOIR   SUNNY     65  52  63 CALM      30.25R
QUANTICO       SUNNY     64  52  64 S7        30.26R
FREDERICKSBRG* SUNNY     66  52  60 CALM      30.25R
STAFFORD*      SUNNY     65  49  56 S3        30.29R
WARRENTON      SUNNY     66  52  61 SW6       30.25R
CULPEPER*      NOT AVBL
MANASSAS*      SUNNY     64  52  63 CALM      30.25R
LEESBURG*      SUNNY     64  52  63 CALM      30.25S
WINCHESTER     SUNNY     68  41  37 SW5       30.23S
FRONT ROYAL*   FAIR      64  46  52 S3        30.23S
LURAY*         FAIR      61  50  67 CALM      30.26S
$$

VAZ048-049-060>072-079>083-041400-
CENTRAL AND SOUTH CENTRAL VIRGINIA

CITY           SKY/WX    TMP DP  RH WIND       PRES   REMARKS
RICHMOND       SUNNY     66  52  60 SW7       30.28R
CHESTERFIELD*  FAIR      66  46  48 SW7       30.30R
PETERSBURG*    SUNNY     68  52  55 SW8       30.29S
HANOVER        SUNNY     66  52  60 S6        30.29R
TAPPAHANNOCK*  SUNNY     66  49  54 SW3       30.28R
QUINTON*       FAIR      64  53  66 S3        30.28S
CHARLOTTSVILLE SUNNY     62  49  62 S3        30.25R
GORDONSVILLE*  FAIR      63  50  62 SW5       30.26R
ORANGE*        SUNNY     64  52  63 S5        30.27R
LOUISA*        SUNNY     64  52  63 S5        30.26R
BUMPASS*       FAIR      64  52  64 SW3       30.26R
FARMVILLE*     SUNNY     64  54  68 SW5       30.27R
CREWE*         FAIR      66  53  64 S3        30.28S
FORT PICKETT*  FAIR      64  54  69 SW7       30.29R
CHASE CITY*    FAIR      65  58  77 SW5       30.30R
CLARKSVILLE*   FAIR      63  55  77 SW7       30.29R
SOUTH HILL*    SUNNY     63  55  76 SW9       30.36R
LAWRENCEVILLE* FAIR      63  55  76 SW7       30.29S
EMPORIA*       SUNNY     61  52  72 S3        30.32R
$$

VAZ088>098-041400-
SOUTHEAST VIRGINIA

CITY           SKY/WX    TMP DP  RH WIND       PRES   REMARKS
NORFOLK        SUNNY     68  49  50 W9        30.30R
VIRGINIA BEACH MOSUNNY   70  53  54 W8        30.30R
NORFOLK NAVAL  MOSUNNY   71  51  49 VRB6      30.31S
WEST POINT*    SUNNY     69  49  48 SW5       30.30S
SALUDA*        FAIR      67  51  58 W3        30.28S
NEWPORT NEWS   SUNNY     71  51  49 W12       30.30R
LANGLEY AFB    SUNNY     68  51  54 SW10      30.29R
FORT EUSTIS    SUNNY     66  52  60 SW5       30.28S
WILLIAMSBURG*  SUNNY     68  54  60 W3        30.31R
HR EXEC AP*    FAIR      68  55  64 SW6       30.32S
FRANKLIN*      MOSUNNY   64  52  65 SW6       30.32R
WAKEFIELD      SUNNY     66  53  63 SW7       30.30S
$$

VAZ020-022-025-037-045-041400-
WEST CENTRAL AND SOUTHWEST VIRGINIA

CITY           SKY/WX    TMP DP  RH WIND       PRES   REMARKS
STAUNTON*      SUNNY     58  49  71 CALM      30.29R
WAYNESBORO*    FAIR      62  48  61 CALM      30.27S
HOT SPRINGS VA SUNNY     60  44  55 W9        30.33R
LYNCHBURG      SUNNY     61  51  70 S5        30.29R
DANVILLE       SUNNY     62  54  74 SW7       30.29R
SOUTH BOSTON*  FAIR      62  55  75 MISG      30.29R
MARTINSVILLE   SUNNY     64  52  67 CALM      30.32R
ROANOKE        MOSUNNY   61  50  67 CALM      30.30R
BLACKSBURG     SUNNY     56  48  74 CALM      30.34R
DUBLIN*        SUNNY     60  51  74 CALM      30.33R
MARION*        SUNNY     55  49  81 CALM      30.35S
HILLSVILLE*    SUNNY     57  49  73 SW5       30.33R
RICHLANDS*     FAIR      64  41  44 S3        30.31S
WISE*          SUNNY     64  43  45 S5        30.32R
ABINGDON*      SUNNY     63  50  62 E3        30.31S
$$

MDZ021>025-VAZ099-100-041400-
SOUTHERN MARYLAND AND THE DELMARVA PENINSULA

CITY           SKY/WX    TMP DP  RH WIND       PRES   REMARKS
PATUXENT RIVER SUNNY     67  50  54 SW9       30.26R
BAY BRIDGE APT   N/A    N/A N/A N/A SW7       30.24S
LEONARDTOWN    SUNNY     66  48  52 SW5       30.27S
DOVER          SUNNY     68  52  57 SW8       30.21R
GEORGETOWN     PTSUNNY   65  52  62 S9        30.26R
EASTON         SUNNY     70  54  56 SW6       30.28R
CAMBRIDGE      SUNNY     70  52  52 SW3       30.25R
SALISBURY      SUNNY     67  52  58 SW7       30.27R
OCEAN CITY     SUNNY     67  51  56 W6        30.27R
WALLOPS ISLAND MOSUNNY   67  52  58 W12       30.28R
ACCOMACK*      SUNNY     68  50  52 W9        30.28S
$$

NCZ012>017-030>032-041400-
NORTH CENTRAL AND EASTERN NORTH CAROLINA

CITY           SKY/WX    TMP DP  RH WIND       PRES   REMARKS
ROANOKE RAPIDS FAIR      63  54  72 SW6       30.31R
RALEIGH        MOSUNNY   66  57  72 SW8       30.31S
ELIZABETH CITY SUNNY     68  55  63 W10       30.32R
AHOSKIE*       SUNNY     63  55  74 CALM      30.32S
EDENTON*       SUNNY     67  55  64 W5        30.33R
CURRITUCK*     SUNNY     67  51  57 W7        30.32S
KILL DEVIL HLS SUNNY     67  54  64 W7        30.31R
MANTEO         SUNNY     67  53  61 NW7       30.33R
CAPE HATTERAS  SUNNY     65  55  70 VRB5      30.33R
TARBORO*       FAIR      61  56  83 CALM      30.33R
GOLDSBORO      MOSUNNY   63  57  81 CALM      30.30R
WASHINGTON     PTSUNNY   67  55  66 W3        30.33R
GREENVILLE     MOSUNNY   64  57  77 CALM      30.32S
NEW BERN       SUNNY     68  56  65 CALM      30.34R
WILMINGTON     SUNNY     69  58  67 CALM      30.33R
$$

VAZ048-041400-
ELSEWHERE

CITY           SKY/WX    TMP DP  RH WIND       PRES   REMARKS
HARRISBURG PA  SUNNY     62  52  69 CALM      30.22S
BALTIMORE      MOSUNNY   69  50  50 W3        30.23R
ANNAPOLIS      SUNNY     65  50  58 SE5       30.24R
ANDREWS AFB    SUNNY     69  50  49 MISG      30.24R
PHILADELPHIA   MOSUNNY   66  50  56 SW6       30.23S
HENDERSON NC   SUNNY     64  54  69 SW8       30.30S
GREENSBORO     MOSUNNY   65  53  65 SW7       30.29R
ROCKY MOUNT    MOSUNNY   67  56  67 S6        30.32R
$$

VAZ100-041400-
MARINE

STATION/POSITION TIME  TEMP    WIND        PRES    WAVE   SWELL
                       AIR SEA DIR/SP/G            HT/PER HT/PER
                 (UTC) (F)     (DEG/KT/KT) (MB)    (FT/S) (FT/S)
BRANDYWINE LGT   1200   60 54  230/ 10/ 10 1024.1R
CAPE MAY NJ      1200   60 59  210/  6/  8 1023.9R
LEWES DE         1200   66 54  240/  6/  9 1024.0R
15NM E FENWICK I 1250   55 51              1024.5R   3/10
OCEAN-CITY-INLET 1200   61 53  220/  3/  5 1024.4R
WACHAPREAGUE VA  1200   64 62  270/  6/ 10 1025.1R
THOMAS POINT MD  1300   63 59  180/  8/  8 1024.6R
GOOSES REEF MD   1300   63 59                N/A     1
COVE POINT MD    1200   65     270/ 17/ 18 1024.5R
SOLOMONS ISLAND  1200      61                N/A
BISHOPS HEAD MD  1200   62 63  230/  6/  8 1024.2R
PINEY POINT MD   1200           CALM  /  1   N/A
CAMBRIDGE MD     1200   63 62  200/  4/  6 1024.0R
LEWISETTA VA     1200   63 63              1024.4R
RAPPAHANNOCK LGT 1200          200/  8/  9 1025.9R
YORK RVR RNG VA  1200   63     280/  5/  6 1025.0R
YORKTOWN VA      1200   63 60  240/  8/ 11 1025.1R
JAMESTOWN VA     1300   64 64  210/  2/  2 1025.1R
DOMINION TERM VA 1200   63     250/  5/  6 1025.9R
KIPTOPEKE VA     1200      63  180/  1/  3   N/A
CHES BAY BRIDGE  1200   62 58  230/  8/  9 1025.3R
CAPE HENRY VA    1200   65     250/  8/ 13 1024.4R
CHESAPEAKE LGHT  1200   65     270/ 14/ 14 1026.3R
WILLOUBY STN VA  1200   61     250/  8/  8 1026.4R
S CRANEY ISL VA  1200          220/  5/  7 1025.9R
CAPE HENRY BUOY  1228      57                N/A     3/10   2/12
1ST LANDING BUOY 1300      58                N/A     1/ 5
CAPE CHARLES BUO 1226      55                N/A     3/13   3/13
OFFSHORE WE BUOY 1211      52                N/A     3/10   3/10
64NM E OF VA BCH 1250   59 60  270/  6/  6 1025.9R   4/10   3/10
DUCK PIER NC     1200   63 54  260/  9/ 10 1025.3R
44056 DUCK FRF   1211      56                N/A     3/13   2/13
OREGON INLET NC  1200   63 62  240/  6/  7 1026.5R
HATTERAS NC      1200   66 63  330/  2/  3 1026.4R
DIAMOND SHLS NC  1250   66     310/  6/  8 1027.1R   4/10   3/10
CAPE LOOKOUT NC  1300   69      80/  2/  4 1027.1R
$$


USA.gov is the U.S. government's official web portal to all federal, state and local government web resources and services.